West Paducah, KY

4:30 AM CDT on September 28, 2016 (GMT -0500)
Barkley Regional

Weather History for KPAH - July, 2012

Change the Weather History Date:

Wednesday, July 18, 2012

  Actual Average Record
Temperature  
Mean Temperature 88 °F 79 °F  
Max Temperature 101 °F 89 °F 101 °F (2012)
Min Temperature 75 °F 69 °F 58 °F (1967)
Degree Days  
Heating Degree Days 0 0  
Month to date heating degree days 0 0  
Since 1 June heating degree days 7 4  
Since 1 July heating degree days 0 0  
Cooling Degree Days 23 14  
Month to date cooling degree days 358 252  
Year to date cooling degree days 1097 744  
Since 1 June cooling degree days 714 572  
Growing Degree Days 38 (Base 50)    
Moisture  
Dew Point 71 °F    
Average Humidity 61    
Maximum Humidity 87    
Minimum Humidity 35    
Precipitation  
Precipitation 0.00 in 0.15 in 2.15 in (1938)
Month to date precipitation 1.05 2.69  
Year to date precipitation 12.64 27.97  
Snow  
Snow 0.00 in 0.00 in 0.00 in (2002)
Month to date snowfall 0.0 0.0  
Since 1 June snowfall 0.0 0.0  
Since 1 July snowfall 0.0 0.0  
Snow Depth 0.00 in    
Sea Level Pressure  
Sea Level Pressure 29.92 in    
Wind  
Wind Speed 7 mph (SW)    
Max Wind Speed 16 mph    
Max Gust Speed 20 mph    
Visibility 10 miles    
Events      
T = Trace of Precipitation, MM = Missing Value Source: NWS Daily Summary

Daily Weather History Graph

Daily Weather History Graph

Search for Another Location

Airport or City:

Trip Planner

Search our weather history database for the weather conditions in past years. The results will help you decide how hot, cold, wet, or windy it might be!

Date:

Astronomy

Jul. 18, 2012 Rise Set
Actual Time 5:49 AM CDT 8:12 PM CDT
Civil Twilight 5:19 AM CDT 8:42 PM CDT
Nautical Twilight 4:43 AM CDT 9:19 PM CDT
Astronomical Twilight 4:02 AM CDT 9:59 PM CDT
Moon 5:22 AM CDT (7/18) 7:44 PM CDT (7/18)
Length of Visible Light 15h 22m
Length of Day
14h 23m
Waning Crescent, 0% of the Moon is Illuminated
Jul 18
Waning Crescent
Jul 18
New
Jul 26
First Quarter
Aug 1
Full
Aug 9
Last Quarter

Hourly Weather History & Observations

Time (CDT) Temp. Heat Index Dew Point Humidity Pressure Visibility Wind Dir Wind Speed Gust Speed Precip Events Conditions
12:53 AM 78.1 °F - 72.0 °F 81% 29.91 in 10.0 mi WSW 3.5 mph - N/A   Clear
1:53 AM 75.9 °F - 72.0 °F 87% 29.90 in 10.0 mi South 3.5 mph - N/A   Clear
2:53 AM 79.0 °F - 72.0 °F 79% 29.90 in 10.0 mi SSW 5.8 mph - N/A   Clear
3:53 AM 79.0 °F - 72.0 °F 79% 29.91 in 10.0 mi South 3.5 mph - N/A   Mostly Cloudy
4:53 AM 77.0 °F - 72.0 °F 84% 29.92 in 10.0 mi Calm Calm - N/A   Mostly Cloudy
5:53 AM 75.9 °F - 72.0 °F 87% 29.94 in 10.0 mi South 4.6 mph - N/A   Partly Cloudy
6:53 AM 79.0 °F - 72.0 °F 79% 29.95 in 10.0 mi SSW 3.5 mph - N/A   Clear
7:53 AM 82.0 °F 87.4 °F 73.0 °F 74% 29.96 in 10.0 mi SW 6.9 mph - N/A   Clear
8:53 AM 86.0 °F 93.8 °F 73.9 °F 67% 29.96 in 10.0 mi WSW 11.5 mph 19.6 mph N/A   Clear
9:53 AM 90.0 °F 96.4 °F 71.1 °F 54% 29.96 in 10.0 mi West 6.9 mph - N/A   Clear
10:53 AM 91.0 °F 96.6 °F 70.0 °F 50% 29.96 in 10.0 mi SW 6.9 mph - N/A   Clear
11:53 AM 93.9 °F 100.8 °F 71.1 °F 47% 29.96 in 10.0 mi WSW 8.1 mph - N/A   Scattered Clouds
12:53 PM 95.0 °F 100.7 °F 69.1 °F 43% 29.94 in 10.0 mi Variable 5.8 mph - N/A   Partly Cloudy
1:53 PM 97.0 °F 102.8 °F 69.1 °F 40% 29.91 in 10.0 mi WSW 9.2 mph - N/A   Clear
2:53 PM 97.0 °F 104.8 °F 71.1 °F 43% 29.89 in 10.0 mi Variable 6.9 mph - N/A   Clear
3:53 PM 98.1 °F 106.5 °F 71.1 °F 42% 29.87 in 10.0 mi WSW 5.8 mph - N/A   Clear
4:53 PM 99.0 °F 103.5 °F 66.9 °F 35% 29.85 in 10.0 mi WNW 6.9 mph 17.3 mph N/A   Clear
5:53 PM 98.1 °F 103.0 °F 68.0 °F 37% 29.86 in 10.0 mi WSW 11.5 mph - N/A   Clear
6:53 PM 96.1 °F 103.5 °F 71.1 °F 44% 29.86 in 10.0 mi WSW 10.4 mph - N/A   Clear
7:53 PM 91.9 °F 100.7 °F 73.0 °F 54% 29.88 in 10.0 mi WSW 5.8 mph - N/A   Clear
8:53 PM 84.9 °F 92.1 °F 73.9 °F 69% 29.91 in 10.0 mi East 4.6 mph - N/A   Clear
9:53 PM 86.0 °F 93.0 °F 73.0 °F 65% 29.93 in 10.0 mi SSE 9.2 mph - N/A   Clear
10:53 PM 82.9 °F 88.0 °F 72.0 °F 69% 29.94 in 10.0 mi SSW 6.9 mph - N/A   Clear
11:53 PM 82.0 °F 85.9 °F 70.0 °F 67% 29.92 in 10.0 mi SSW 8.1 mph - N/A   Clear